Overview Statistics Trail Chart Weather Telemetry Raw packets
 

This is the latest recevied weather packets stored in our database for station/object SQ3MKP-13. If no packets are shown the sender has not sent any weather packets the latest 10 day(s).

<< 13 14 15 16 17 18 19 >>
Time Temp. Humidity Pressure Rain* Wind** Luminosity Snow
1788508577 19.44° C 73% 1002.3 hPa - - 201 W/m² -
1788508277 19.44° C 73% 1002.3 hPa - - 177 W/m² -
1788507975 18.89° C 73% 1002.4 hPa - - 186 W/m² -
1788507674 18.89° C 73% 1002.5 hPa - - 162 W/m² -
1788507374 18.89° C 74% 1002.6 hPa - - 143 W/m² -
1788507072 18.89° C 74% 1002.5 hPa - - 192 W/m² -
1788506776 18.89° C 74% 1002.5 hPa - - 184 W/m² -
1788506470 18.89° C 74% 1002.5 hPa - - 152 W/m² -
1788506169 18.89° C 75% 1002.4 hPa - - 179 W/m² -
1788505868 18.33° C 75% 1002.6 hPa - - 143 W/m² -
1788505567 18.33° C 75% 1002.6 hPa - - 143 W/m² -
1788505266 18.33° C 76% 1002.8 hPa - - 151 W/m² -
1788504965 18.33° C 76% 1002.6 hPa - - 115 W/m² -
1788504664 18.33° C 76% 1002.7 hPa - - 112 W/m² -
1788504363 18.33° C 76% 1002.6 hPa - - 154 W/m² -
1788504062 18.33° C 76% 1002.7 hPa - - 140 W/m² -
1788503761 18.33° C 78% 1002.7 hPa - - 214 W/m² -
1788503460 17.78° C 78% 1002.7 hPa - - 116 W/m² -
1788503159 17.78° C 79% 1002.8 hPa - - 161 W/m² -
1788502858 17.78° C 80% 1002.9 hPa - - 112 W/m² -
1788502557 17.78° C 80% 1003.1 hPa - - 73 W/m² -
1788502256 17.78° C 80% 1003.1 hPa - - 77 W/m² -
1788501955 17.78° C 80% 1003 hPa - - 66 W/m² -
1788501654 17.78° C 80% 1003 hPa - - 59 W/m² -
1788501353 17.78° C 80% 1003 hPa - - 67 W/m² -

* Rain since midnight (hover to see other rain measurements)
** Current wind speed in m/s (hover to see current wind gust speed)